Weather observations for the past three days for
Dubuque Regional Airport
Metric (Imperial)
Date Time (cdt) Wind (kph) Vis. (km) Weather Sky Cond. Temperature (ºC) Relative Humidity Wind Chill (°C) Heat Index (°C) Pressure Precipitation (cm)
Air Dwpt 6 hour altimeter (cm) sea level (mb) 1 hr 3 hr 6 hr
Max. Min.
06 22:53 N 9 16.09 Fair CLR 4.4 -3.9 55% 2 76.2 1016.7
06 21:53 N 11 16.09 Fair CLR 3.3 -2.8 65% 1 76.23 1016.9
06 20:53 N 11 16.09 Fair CLR 5.6 -3.9 51% 3 76.2 1016.4
06 19:53 NW 15 16.09 Fair CLR 7.2 -3.3 48% 5 76.17 1016.1
06 18:53 NW 28 G 43 16.09 A Few Clouds FEW065 9.4 -3.9 10.6 8.9 39% 6 76.17 1016.1
06 17:53 NW 28 G 41 16.09 Overcast OVC065 9.4 -3.9 39% 6 76.17 1016.1
06 16:53 NW 22 16.09 Overcast OVC065 9.4 -3.3 41% 7 76.17 1016.2
06 15:53 NW 24 G 44 16.09 Mostly Cloudy BKN065 8.9 -3.9 41% 6 76.2 1016.5
06 14:53 NW 33 G 43 16.09 Overcast and Breezy OVC065 10 -2.8 41% 7 76.2 1016.8
06 13:53 NW 31 G 56 16.09 Mostly Cloudy BKN060 9.4 -2.8 43% 6 76.2 1016.4
06 12:53 NW 30 G 54 16.09 Partly Cloudy SCT055 10.6 -2.8 10.6 3.9 39% 76.2 1016.5
06 11:53 NW 28 G 52 16.09 Mostly Cloudy BKN055 9.4 -2.8 43% 6 76.2 1016.3
06 10:53 NW 41 G 52 16.09 A Few Clouds and Breezy FEW050 8.3 -3.3 44% 4 76.2 1016.4
06 09:53 NW 22 G 35 16.09 A Few Clouds FEW046 7.8 -2.8 47% 5 76.17 1016.3
06 08:53 NW 17 16.09 Fair CLR 6.7 -1.7 55% 4 76.17 1016.0
06 07:53 NW 17 16.09 Fair CLR 5 -2.2 60% 2 76.12 1015.5
06 06:53 NW 15 16.09 Fair CLR 3.9 -2.2 5.6 0 65% 1 76.07 1014.7
06 05:53 NW 13 16.09 Fair CLR 3.3 -2.8 65% 0 76 1013.9
06 04:53 NW 17 16.09 Fair CLR 3.3 -2.8 65% -0 75.97 1013.4
06 03:53 NW 11 16.09 Fair CLR 2.2 -2.8 70% -1 75.97 1013.3
06 02:53 W 7 16.09 Fair CLR 0 -1.7 88% -2 76 1013.7
06 01:53 Calm 16.09 Fair CLR 5 -3.3 55% 75.92 1012.5
06 00:53 N 9 16.09 Fair CLR 5 -2.8 11.7 4.4 57% 3 75.92 1012.7
05 23:53 N 7 16.09 Fair CLR 7.2 -2.8 49% 6 75.9 1012.3
05 22:53 N 11 16.09 Fair CLR 6.1 -1.7 58% 4 75.9 1012.3
05 21:53 N 15 16.09 Fair CLR 6.7 -1.7 55% 4 75.84 1011.7
05 20:53 N 17 16.09 Fair CLR 8.9 -2.2 46% 7 75.79 1010.7
05 19:53 N 19 16.09 Fair CLR 10.6 -3.3 38% 75.72 1010.0
05 18:53 N 17 16.09 Fair CLR 11.7 -2.2 14.4 11.1 38% 75.69 1009.4
05 17:53 N 20 16.09 Fair CLR 12.2 -1.7 38% 75.67 1009.2
05 16:53 NW 19 G 39 16.09 Fair CLR 13.3 -2.2 34% 75.69 1009.4
05 15:53 NW 22 G 50 16.09 A Few Clouds FEW080 13.9 -2.2 33% 75.69 1009.4
05 14:53 W 24 G 41 16.09 Fair CLR 12.8 -2.2 36% 75.74 1010.1
05 13:53 NW 15 16.09 A Few Clouds FEW070 13.3 -0.6 39% 75.79 1010.6
05 12:53 NW 24 G 33 16.09 Fair CLR 12.2 -1.7 12.8 5.6 38% 75.79 1010.9
05 11:53 W 22 G 31 16.09 Fair CLR 10.6 -3.3 38% 75.79 1010.8
05 10:53 N 13 G 30 16.09 Fair CLR 10.6 -2.8 39% 75.77 1010.3
05 09:53 N 19 16.09 Fair CLR 10 -4.4 36% 8 75.77 1010.4
05 08:53 NW 15 16.09 Fair CLR 9.4 -4.4 38% 7 75.77 1010.2
05 07:53 W 11 16.09 Fair CLR 6.7 -0.6 60% 5 75.82 1011.0
05 06:53 W 6 16.09 Fair CLR 5.6 -0.6 10 4.4 65% 75.77 1010.3
05 05:53 NW 7 16.09 Fair CLR 5.6 -2.2 58% 4 75.62 1008.0
05 04:53 NW 9 16.09 Fair CLR 5.6 -1.1 62% 4 75.62 1008.0
05 03:53 N 19 16.09 Partly Cloudy SCT120 8.3 -4.4 41% 6 75.51 1006.5
05 02:53 N 31 G 46 16.09 Mostly Cloudy BKN120 8.9 -3.9 41% 5 75.51 1006.5
05 01:53 N 15 16.09 Fair CLR 8.9 -1.1 50% 7 75.41 1005.1
05 00:53 N 30 G 41 16.09 Fair CLR 10 -1.7 19.4 10 44% 7 75.39 1004.9
04 23:53 NW 24 G 44 16.09 Fair CLR 11.1 -0.6 45% 75.36 1004.4
04 22:53 NW 33 G 46 16.09 A Few Clouds and Breezy FEW120 12.8 0 42% 75.31 1003.9
04 21:53 NW 20 16.09 Fair CLR 13.3 -0.6 39% 75.29 1003.3
04 20:53 NW 15 16.09 Fair CLR 13.3 1.1 44% 75.16 1001.9
04 19:53 NW 31 G 48 16.09 Fair CLR 16.7 1.1 35% 75.08 1000.9
04 18:53 NW 33 G 48 16.09 Fair and Breezy CLR 19.4 2.2 26.1 19.4 32% 74.98 999.5
04 17:53 NW 35 G 56 16.09 Fair and Breezy CLR 22.2 4.4 31% 74.93 998.8
04 16:53 NW 28 G 52 16.09 Partly Cloudy SCT100 SCT120 25 8.9 36% 26 74.85 997.6
04 15:53 W 33 G 50 16.09 Partly Cloudy and Breezy SCT095 24.4 6.1 31% 25 74.85 997.6
04 14:53 W 43 G 56 16.09 Partly Cloudy and Windy FEW090 SCT110 26.1 6.7 29% 26 74.88 998.0
04 13:53 W 41 G 56 16.09 Partly Cloudy and Breezy SCT090 SCT110 25 6.7 31% 25 74.93 998.6
04 12:53 W 35 G 56 16.09 Fair and Breezy CLR 24.4 6.1 25 7.8 31% 25 74.9 998.4
04 11:53 SW 28 16.09 Fair CLR 22.8 6.7 35% 74.98 999.1
04 10:53 SW 31 G 50 16.09 Fair CLR 21.1 6.1 38% 75.01 999.8
04 09:53 SW 24 16.09 Fair CLR 19.4 6.7 44% 75.06 1000.5
04 08:53 SW 15 16.09 Fair CLR 16.7 6.1 50% 75.13 1001.5
04 07:53 SW 7 16.09 Fair CLR 12.2 6.1 67% 75.16 1002.1
04 06:53 SW 7 16.09 Fair CLR 7.8 3.3 11.1 5.6 73% 7 75.18 1002.3
04 05:53 S 9 16.09 Fair CLR 6.7 1.7 71% 5 75.21 1002.4
04 04:53 S 9 16.09 Fair CLR 6.1 1.7 74% 4 75.23 1003.0
04 03:53 S 7 16.09 Fair CLR 6.7 2.8 76% 6 75.26 1003.4
04 02:53 SW 7 16.09 Fair CLR 7.8 2.2 68% 7 75.31 1003.9
04 01:53 S 7 16.09 Fair CLR 8.9 2.8 66% 8 75.36 1004.5
04 00:53 Calm 16.09 Fair CLR 11.1 2.2 21.1 10.6 55% 75.41 1005.5
03 23:53 Calm 16.09 Fair CLR 12.2 2.2 51% 75.46 1006.0
Date Time (cdt) Wind (kph) Vis. (km) Weather Sky Cond. Air Dwpt Max. Min. Relative Humidity Wind Chill (°C) Heat Index (°C) altimeter (cm) sea level (mb) 1 hr 3 hr 6 hr
6 hour
Temperature (ºC) Pressure Precipitation (cm)